Ortonville, MN

2:49 PM CST on January 18, 2018 (GMT -0600)
Ortonville Municipal-Martinson

Weather History for KVVV - October, 2012

Change the Weather History Date:

Tuesday, October 2, 2012

  Actual Average (KAQP) Record (KAQP)
Temperature  
Mean Temperature 54 °F -  
Max Temperature 73 °F 62 °F 87 °F (1997)
Min Temperature 35 °F 37 °F 3 °F (1998)
Degree Days  
Heating Degree Days 11    
Growing Degree Days 4 (Base 50)    
Moisture  
Dew Point 26 °F    
Average Humidity 38    
Maximum Humidity 75    
Minimum Humidity 14    
Precipitation  
Precipitation 0.00 in - - ()
Sea Level Pressure  
Sea Level Pressure 29.87 in    
Wind  
Wind Speed 6 mph (South)    
Max Wind Speed 16 mph    
Max Gust Speed 23 mph    
Visibility 9 miles    
Events      
Averages and records for this station are not official NWS values.
T = Trace of Precipitation, MM = Missing Value Source: NWS Daily Summary

Daily Weather History Graph

Daily Weather History Graph

Search for Another Location

Airport or City:

Trip Planner

Search our weather history database for the weather conditions in past years. The results will help you decide how hot, cold, wet, or windy it might be!

Date:

Astronomy

Oct. 02, 2012 Rise Set
Actual Time 7:25 AM CDT 7:03 PM CDT
Civil Twilight 6:56 AM CDT 7:32 PM CDT
Nautical Twilight 6:22 AM CDT 8:06 PM CDT
Astronomical Twilight 5:47 AM CDT 8:41 PM CDT
Moon 8:06 PM CDT (10/2) 10:03 AM CDT (10/2)
Length of Visible Light 12h 36m
Length of Day
11h 37m
Waning Gibbous, 94% of the Moon is Illuminated
Oct 2
Waning Gibbous
Oct 8
Last Quarter
Oct 15
New
Oct 21
First Quarter
Oct 29
Full

Hourly Weather History & Observations

Time (CDT) Temp. Windchill Dew Point Humidity Pressure Visibility Wind Dir Wind Speed Gust Speed Precip Events Conditions
12:23 AM 44.6 °F - 32.0 °F 61% 30.00 in 10.0 mi Calm Calm - N/A   Clear
12:41 AM 41.0 °F - 32.0 °F 70% 29.99 in 10.0 mi West 2.3 mph - N/A   Clear
1:01 AM 41.0 °F 39.0 °F 32.0 °F 70% 29.99 in 10.0 mi WNW 3.5 mph - N/A   Clear
1:21 AM 42.8 °F - 32.0 °F 66% 29.99 in 10.0 mi West 2.3 mph - N/A   Clear
1:41 AM 42.8 °F 41.1 °F 33.8 °F 70% 30.00 in 10.0 mi West 3.5 mph - N/A   Clear
2:01 AM 42.8 °F - 33.8 °F 70% 29.99 in 10.0 mi West 2.3 mph - N/A   Clear
2:21 AM 41.0 °F - 30.2 °F 65% 29.98 in 10.0 mi West 2.3 mph - N/A   Clear
2:41 AM 39.2 °F 37.0 °F 30.2 °F 70% 29.98 in 10.0 mi WSW 3.5 mph - N/A   Clear
3:01 AM 41.0 °F 39.0 °F 28.4 °F 61% 29.97 in 10.0 mi WSW 3.5 mph - N/A   Clear
3:12 AM 41.0 °F 38.0 °F 28.4 °F 61% 29.97 in 10.0 mi WSW 4.6 mph - N/A   Clear
3:21 AM 42.8 °F 40.1 °F 28.4 °F 57% 29.97 in 10.0 mi WSW 4.6 mph - N/A   Clear
3:41 AM 42.8 °F 41.1 °F 26.6 °F 53% 29.96 in 10.0 mi WSW 3.5 mph - N/A   Clear
4:01 AM 39.2 °F - 26.6 °F 61% 29.96 in 10.0 mi SSW 1.2 mph - N/A   Clear
4:41 AM 39.2 °F - 28.4 °F 65% 29.95 in 10.0 mi South 2.3 mph - N/A   Clear
5:01 AM 39.2 °F - 28.4 °F 65% 29.95 in 10.0 mi SSE 2.3 mph - N/A   Clear
5:41 AM 39.2 °F 37.0 °F 28.4 °F 65% 29.95 in 10.0 mi South 3.5 mph - N/A   Clear
6:01 AM 37.4 °F 34.9 °F 26.6 °F 65% 29.95 in 10.0 mi SSE 3.5 mph - N/A   Clear
6:21 AM 37.4 °F 33.8 °F 26.6 °F 65% 29.95 in 10.0 mi SSE 4.6 mph - N/A   Clear
6:41 AM 35.6 °F 31.7 °F 26.6 °F 70% 29.95 in 10.0 mi SSE 4.6 mph - N/A   Clear
6:55 AM 37.4 °F 34.9 °F 26.6 °F 65% 29.95 in 7.0 mi SSE 3.5 mph - N/A   Clear
7:01 AM 37.4 °F 34.9 °F 28.4 °F 70% 29.95 in 5.0 mi SSE 3.5 mph - N/A   Clear
7:12 AM 37.4 °F 33.8 °F 28.4 °F 70% 29.95 in 5.0 mi SSE 4.6 mph - N/A   Haze
7:21 AM 37.4 °F 33.8 °F 28.4 °F 70% 29.94 in 5.0 mi SE 4.6 mph - N/A   Clear
7:33 AM 35.6 °F 30.7 °F 28.4 °F 75% 29.94 in 7.0 mi SE 5.8 mph - N/A   Clear
7:35 AM 35.6 °F 31.7 °F 28.4 °F 75% 29.94 in 5.0 mi SE 4.6 mph - N/A   Haze
8:01 AM 35.6 °F 31.7 °F 28.4 °F 75% 29.94 in 2.5 mi ESE 4.6 mph - N/A   Clear
8:21 AM 37.4 °F 33.8 °F 28.4 °F 70% 29.94 in 3.0 mi SE 4.6 mph - N/A   Clear
8:41 AM 41.0 °F 37.1 °F 30.2 °F 65% 29.93 in 3.0 mi SE 5.8 mph - N/A   Clear
9:01 AM 44.6 °F 42.2 °F 30.2 °F 57% 29.92 in 10.0 mi SE 4.6 mph - N/A   Clear
9:41 AM 50.0 °F - 30.2 °F 47% 29.92 in 10.0 mi South 4.6 mph - N/A   Clear
10:01 AM 53.6 °F - 32.0 °F 44% 29.91 in 10.0 mi SSE 5.8 mph - N/A   Clear
10:13 AM 55.4 °F - 32.0 °F 41% 29.91 in 10.0 mi South 6.9 mph - N/A   Clear
10:21 AM 55.4 °F - 32.0 °F 41% 29.91 in 10.0 mi South 5.8 mph - N/A   Clear
10:41 AM 60.8 °F - 30.2 °F 31% 29.90 in 10.0 mi SSE 5.8 mph - N/A   Clear
10:59 AM 64.4 °F - 30.2 °F 28% 29.89 in 10.0 mi South 9.2 mph - N/A   Clear
11:02 AM 64.4 °F - 30.2 °F 28% 29.89 in 10.0 mi SSW 8.1 mph - N/A   Clear
11:21 AM 66.2 °F - 26.6 °F 23% 29.89 in 10.0 mi South 13.8 mph 19.6 mph N/A   Clear
11:41 AM 66.2 °F - 26.6 °F 23% 29.88 in 10.0 mi SSW 12.7 mph 19.6 mph N/A   Clear
11:49 AM 68.0 °F - 26.6 °F 21% 29.88 in 10.0 mi SSW 10.4 mph 19.6 mph N/A   Clear
12:01 PM 68.0 °F - 26.6 °F 21% 29.87 in 10.0 mi South 12.7 mph 18.4 mph N/A   Clear
12:21 PM 69.8 °F - 26.6 °F 20% 29.86 in 10.0 mi South 15.0 mph 19.6 mph N/A   Clear
12:30 PM 68.0 °F - 26.6 °F 21% 29.85 in 10.0 mi SSW 11.5 mph 19.6 mph N/A   Clear
12:40 PM 69.8 °F - 24.8 °F 18% 29.85 in 10.0 mi South 13.8 mph 19.6 mph N/A   Clear
12:57 PM 69.8 °F - 24.8 °F 18% 29.84 in 10.0 mi SSW 10.4 mph 20.7 mph N/A   Clear
1:21 PM 69.8 °F - 24.8 °F 18% 29.83 in 10.0 mi South 11.5 mph 20.7 mph N/A   Clear
1:40 PM 71.6 °F - 26.6 °F 19% 29.82 in 10.0 mi SSW 12.7 mph 18.4 mph N/A   Clear
1:41 PM 71.6 °F - 26.6 °F 19% 29.82 in 10.0 mi South 12.7 mph 18.4 mph N/A   Clear
1:52 PM 71.6 °F - 24.8 °F 17% 29.82 in 10.0 mi SSW 9.2 mph 16.1 mph N/A   Clear
1:59 PM 71.6 °F - 26.6 °F 19% 29.81 in 10.0 mi SSW 12.7 mph 17.3 mph N/A   Clear
2:21 PM 73.4 °F - 23.0 °F 15% 29.80 in 10.0 mi South 15.0 mph 18.4 mph N/A   Clear
2:33 PM 73.4 °F - 21.2 °F 14% 29.79 in 10.0 mi South 12.7 mph 23.0 mph N/A   Clear
2:38 PM 73.4 °F - 23.0 °F 15% 29.79 in 10.0 mi SSW 15.0 mph 23.0 mph N/A   Clear
2:53 PM 71.6 °F - 21.2 °F 15% 29.78 in 10.0 mi South 16.1 mph 20.7 mph N/A   Clear
3:14 PM 73.4 °F - 23.0 °F 15% 29.77 in 10.0 mi SSW 10.4 mph 17.3 mph N/A   Clear
3:33 PM 73.4 °F - 21.2 °F 14% 29.77 in 10.0 mi South 16.1 mph 23.0 mph N/A   Clear
3:52 PM 73.4 °F - 21.2 °F 14% 29.77 in 10.0 mi SSW 11.5 mph 21.9 mph N/A   Clear
4:21 PM 73.4 °F - 21.2 °F 14% 29.76 in 10.0 mi South 12.7 mph 19.6 mph N/A   Clear
4:33 PM 71.6 °F - 21.2 °F 15% 29.76 in 10.0 mi South 9.2 mph 17.3 mph N/A   Clear
4:40 PM 73.4 °F - 21.2 °F 14% 29.76 in 10.0 mi South 10.4 mph 19.6 mph N/A   Clear
4:59 PM 73.4 °F - 21.2 °F 14% 29.76 in 10.0 mi South 12.7 mph 19.6 mph N/A   Clear
5:19 PM 73.4 °F - 21.2 °F 14% 29.76 in 10.0 mi South 11.5 mph 17.3 mph N/A   Clear
5:42 PM 73.4 °F - 21.2 °F 14% 29.76 in 10.0 mi South 12.7 mph - N/A   Clear
5:54 PM 73.4 °F - 21.2 °F 14% 29.77 in 10.0 mi South 10.4 mph 17.3 mph N/A   Clear
6:20 PM 71.6 °F - 21.2 °F 15% 29.76 in 10.0 mi South 8.1 mph - N/A   Clear
6:44 PM 69.8 °F - 21.2 °F 16% 29.77 in 10.0 mi South 6.9 mph - N/A   Clear
7:04 PM 66.2 °F - 23.0 °F 19% 29.78 in 10.0 mi South 5.8 mph - N/A   Clear
7:24 PM 64.4 °F - 23.0 °F 21% 29.78 in 10.0 mi South 3.5 mph - N/A   Clear
7:43 PM 60.8 °F - 23.0 °F 23% 29.78 in 10.0 mi SSE 4.6 mph - N/A   Clear
8:00 PM 57.2 °F - 24.8 °F 29% 29.78 in 10.0 mi SSE 4.6 mph - N/A   Clear
8:24 PM 57.2 °F - 24.8 °F 29% 29.79 in 10.0 mi SSE 4.6 mph - N/A   Clear
8:43 PM 60.8 °F - 24.8 °F 25% 29.78 in 10.0 mi SSE 8.1 mph - N/A   Clear
9:03 PM 60.8 °F - 23.0 °F 23% 29.78 in 10.0 mi SSE 8.1 mph - N/A   Clear
9:19 PM 57.2 °F - 23.0 °F 27% 29.79 in 10.0 mi SSE 6.9 mph - N/A   Clear
9:34 PM 57.2 °F - 23.0 °F 27% 29.79 in 10.0 mi SSE 6.9 mph - N/A   Clear
9:42 PM 57.2 °F - 23.0 °F 27% 29.79 in 10.0 mi SSE 6.9 mph - N/A   Clear
10:21 PM 53.6 °F - 24.8 °F 33% 29.79 in 10.0 mi SSE 4.6 mph - N/A   Clear
10:38 PM 53.6 °F - 23.0 °F 30% 29.80 in 10.0 mi SSE 5.8 mph - N/A   Clear
11:02 PM 53.6 °F - 23.0 °F 30% 29.80 in 10.0 mi SE 6.9 mph - N/A   Clear
11:17 PM 51.8 °F - 23.0 °F 33% 29.81 in 10.0 mi SE 6.9 mph - N/A   Clear
11:43 PM 51.8 °F - 23.0 °F 33% 29.81 in 10.0 mi SE 5.8 mph - N/A   Clear
11:56 PM 51.8 °F - 23.0 °F 33% 29.81 in 10.0 mi SE 6.9 mph - N/A   Clear